Madison, SD

2:57 AM CDT on June 25, 2017 (GMT -0500)
Madison Municipal

Weather History for KMDS - January, 2014

Change the Weather History Date:

Sunday, January 5, 2014

  Actual Average Record
Temperature  
Mean Temperature -10 °F -  
Max Temperature -4 °F 20 °F 59 °F (2012)
Min Temperature -16 °F 1 °F -16 °F (2014)
Degree Days  
Heating Degree Days 75    
Moisture  
Dew Point -18 °F    
Average Humidity 69    
Maximum Humidity 84    
Minimum Humidity 54    
Precipitation  
Precipitation 0.00 in - - ()
Sea Level Pressure  
Sea Level Pressure 30.35 in    
Wind  
Wind Speed 16 mph (NW)    
Max Wind Speed 32 mph    
Max Gust Speed 43 mph    
Visibility 10 miles    
Events Snow    
Averages and records for this station are not official NWS values.
T = Trace of Precipitation, MM = Missing Value Source: NWS Daily Summary

Daily Weather History Graph

Daily Weather History Graph

Search for Another Location

Airport or City:

Trip Planner

Search our weather history database for the weather conditions in past years. The results will help you decide how hot, cold, wet, or windy it might be!

Date:

Astronomy

Jan. 05, 2014 Rise Set
Actual Time 8:03 AM CST 5:04 PM CST
Civil Twilight 7:30 AM CST 5:37 PM CST
Nautical Twilight 6:54 AM CST 6:13 PM CST
Astronomical Twilight 6:19 AM CST 6:48 PM CST
Moon 10:34 AM CST (1/5) 10:46 PM CST (1/5)
Length of Visible Light 10h 07m
Length of Day
9h 01m
Waxing Crescent, 25% of the Moon is Illuminated
Jan 5
Waxing Crescent
Jan 7
First Quarter
Jan 15
Full
Jan 23
Last Quarter
Jan 30
New

Hourly Weather History & Observations

Time (CST) Temp. Windchill Dew Point Humidity Pressure Visibility Wind Dir Wind Speed Gust Speed Precip Events Conditions
12:10 AM -4.0 °F -24.5 °F -11.2 °F 71% 30.25 in 10.0 mi NNW 15.0 mph - N/A   Partly Cloudy
12:25 AM -4.0 °F -23.7 °F -11.2 °F 71% 30.25 in 10.0 mi NNW 13.8 mph 20.7 mph N/A   Scattered Clouds
12:50 AM -4.0 °F -25.2 °F -13.0 °F 65% 30.26 in 10.0 mi NNW 16.1 mph - N/A   Partly Cloudy
1:05 AM -5.8 °F -25.2 °F -13.0 °F 71% 30.26 in 10.0 mi NNW 12.7 mph - N/A   Partly Cloudy
1:30 AM -5.8 °F -27.5 °F -13.0 °F 71% 30.26 in 10.0 mi NNW 16.1 mph - N/A   Partly Cloudy
1:45 AM -7.6 °F -29.1 °F -13.0 °F 77% 30.27 in 10.0 mi NNW 15.0 mph - N/A   Partly Cloudy
2:10 AM -7.6 °F -27.5 °F -13.0 °F 77% 30.28 in 10.0 mi NNW 12.7 mph - N/A   Clear
2:25 AM -7.6 °F -26.6 °F -13.0 °F 77% 30.28 in 10.0 mi NNW 11.5 mph - N/A   Clear
2:50 AM -7.6 °F -25.7 °F -13.0 °F 77% 30.28 in 10.0 mi North 10.4 mph - N/A   Clear
3:10 AM -7.6 °F -24.6 °F -13.0 °F 77% 30.29 in 10.0 mi North 9.2 mph - N/A   Clear
3:30 AM -7.6 °F -23.4 °F -13.0 °F 77% 30.29 in 10.0 mi NNW 8.1 mph - N/A   Clear
3:50 AM -7.6 °F -22.1 °F -13.0 °F 77% 30.30 in 10.0 mi NW 6.9 mph - N/A   Clear
4:05 AM -7.6 °F -22.1 °F -13.0 °F 77% 30.29 in 10.0 mi NW 6.9 mph - N/A   Clear
4:30 AM -7.6 °F -23.4 °F -13.0 °F 77% 30.30 in 10.0 mi NW 8.1 mph - N/A   Clear
4:50 AM -7.6 °F -22.1 °F -13.0 °F 77% 30.30 in 10.0 mi NW 6.9 mph - N/A   Clear
5:05 AM -9.4 °F -24.3 °F -14.8 °F 77% 30.30 in 10.0 mi NW 6.9 mph - N/A   Clear
5:30 AM -7.6 °F -25.7 °F -14.8 °F 71% 30.31 in 10.0 mi NW 10.4 mph - N/A   Clear
5:45 AM -9.4 °F -27.9 °F -14.8 °F 77% 30.31 in 10.0 mi NW 10.4 mph - N/A   Clear
6:10 AM -9.4 °F -25.6 °F -14.8 °F 77% 30.32 in 10.0 mi NW 8.1 mph - N/A   Clear
6:30 AM -9.4 °F -26.8 °F -16.6 °F 71% 30.32 in 10.0 mi WNW 9.2 mph - N/A   Clear
6:50 AM -11.2 °F -29.0 °F -16.6 °F 77% 30.32 in 10.0 mi WNW 9.2 mph - N/A   Clear
7:10 AM -11.2 °F -29.0 °F -16.6 °F 77% 30.32 in 10.0 mi WNW 9.2 mph - N/A   Clear
7:30 AM -11.2 °F -30.1 °F -16.6 °F 77% 30.33 in 10.0 mi NW 10.4 mph - N/A   Clear
7:50 AM -11.2 °F -30.1 °F -16.6 °F 77% 30.33 in 10.0 mi NW 10.4 mph - N/A   Clear
8:05 AM -11.2 °F -29.0 °F -16.6 °F 77% 30.34 in 10.0 mi NW 9.2 mph - N/A   Clear
8:30 AM -11.2 °F -27.8 °F -16.6 °F 77% 30.34 in 10.0 mi NW 8.1 mph - N/A   Clear
8:45 AM -9.4 °F -27.9 °F -14.8 °F 77% 30.35 in 10.0 mi WNW 10.4 mph - N/A   Mostly Cloudy
9:10 AM -9.4 °F -28.9 °F -13.0 °F 84% 30.36 in 10.0 mi NW 11.5 mph - N/A   Overcast
9:25 AM -7.6 °F -26.6 °F -13.0 °F 77% 30.36 in 10.0 mi NW 11.5 mph - N/A   Scattered Clouds
9:45 AM -7.6 °F -25.7 °F -13.0 °F 77% 30.37 in 10.0 mi NW 10.4 mph - N/A   Clear
10:10 AM -7.6 °F -28.3 °F -13.0 °F 77% 30.38 in 10.0 mi NW 13.8 mph - N/A   Clear
10:30 AM -5.8 °F -27.5 °F -13.0 °F 71% 30.38 in 10.0 mi NNW 16.1 mph - N/A   Clear
10:50 AM -4.0 °F -27.6 °F -13.0 °F 65% 30.38 in 10.0 mi NW 20.7 mph - N/A   Clear
11:10 AM -4.0 °F -28.6 °F -13.0 °F 65% 30.39 in 10.0 mi NW 23.0 mph 27.6 mph N/A   Clear
11:25 AM -4.0 °F -28.1 °F -13.0 °F 65% 30.38 in 10.0 mi NNW 21.9 mph 29.9 mph N/A   Clear
11:50 AM -4.0 °F -29.1 °F -13.0 °F 65% 30.37 in 10.0 mi NNW 24.2 mph 34.5 mph N/A   Clear
12:05 PM -4.0 °F -27.0 °F -13.0 °F 65% 30.36 in 10.0 mi NW 19.6 mph 29.9 mph N/A   Clear
12:30 PM -4.0 °F -29.1 °F -14.8 °F 60% 30.36 in 10.0 mi NW 24.2 mph 33.4 mph N/A   Clear
12:45 PM -4.0 °F -29.6 °F -14.8 °F 60% 30.36 in 10.0 mi NW 25.3 mph 32.2 mph N/A   Clear
1:10 PM -4.0 °F -30.4 °F -14.8 °F 60% 30.36 in 10.0 mi NW 27.6 mph 33.4 mph N/A   Partly Cloudy
1:30 PM -5.8 °F -30.5 °F -14.8 °F 65% 30.36 in 10.0 mi NNW 21.9 mph 35.7 mph N/A Snow Light Snow
1:50 PM -5.8 °F -32.4 °F -16.6 °F 60% 30.36 in 10.0 mi NNW 26.5 mph 33.4 mph N/A   Partly Cloudy
2:05 PM -7.6 °F -34.8 °F -16.6 °F 65% 30.37 in 10.0 mi NNW 26.5 mph 32.2 mph N/A   Partly Cloudy
2:30 PM -7.6 °F -36.9 °F -20.2 °F 54% 30.37 in 10.0 mi NNW 32.2 mph 40.3 mph N/A   Clear
2:50 PM -7.6 °F -34.8 °F -20.2 °F 54% 30.38 in 10.0 mi NNW 26.5 mph 36.8 mph N/A   Clear
3:10 PM -7.6 °F -36.1 °F -20.2 °F 54% 30.38 in 10.0 mi NW 29.9 mph 38.0 mph N/A   Clear
3:30 PM -9.4 °F -38.2 °F -18.4 °F 65% 30.39 in 7.0 mi NNW 28.8 mph 34.5 mph N/A   Partly Cloudy
3:45 PM -9.4 °F -39.0 °F -22.0 °F 54% 30.40 in 10.0 mi NNW 31.1 mph 39.1 mph N/A   Partly Cloudy
4:10 PM -11.2 °F -41.0 °F -23.8 °F 54% 30.40 in 10.0 mi NNW 29.9 mph 41.4 mph N/A   Clear
4:30 PM -13.0 °F -42.1 °F -23.8 °F 59% 30.40 in 10.0 mi NNW 26.5 mph 42.6 mph N/A   Clear
4:45 PM -13.0 °F -41.1 °F -23.8 °F 59% 30.41 in 10.0 mi NW 24.2 mph 35.7 mph N/A   Partly Cloudy
5:10 PM -13.0 °F -43.0 °F -20.2 °F 70% 30.42 in 1.0 mi NW 28.8 mph 35.7 mph N/A Snow Light Snow
5:25 PM -13.0 °F -41.1 °F -22.0 °F 64% 30.42 in 10.0 mi NW 24.2 mph 38.0 mph N/A   Mostly Cloudy
5:50 PM -14.8 °F -44.5 °F -23.8 °F 64% 30.42 in 10.0 mi NNW 26.5 mph 35.7 mph N/A   Scattered Clouds
6:05 PM -14.8 °F -43.5 °F -22.0 °F 70% 30.42 in 10.0 mi NW 24.2 mph 33.4 mph N/A   Partly Cloudy
6:30 PM -14.8 °F -45.5 °F -22.0 °F 70% 30.41 in 10.0 mi NW 28.8 mph 34.5 mph N/A   Scattered Clouds
6:50 PM -14.8 °F -42.9 °F -22.0 °F 70% 30.42 in 10.0 mi NW 23.0 mph 28.8 mph N/A   Partly Cloudy
7:05 PM -16.6 °F -46.9 °F -23.8 °F 70% 30.42 in 10.0 mi NW 26.5 mph 34.5 mph N/A   Partly Cloudy
7:25 PM -16.6 °F -46.9 °F -25.6 °F 64% 30.41 in 10.0 mi NW 26.5 mph 33.4 mph N/A   Mostly Cloudy
7:50 PM -16.6 °F -46.4 °F -25.6 °F 64% 30.41 in 10.0 mi NW 25.3 mph 32.2 mph N/A   Partly Cloudy
8:05 PM -16.6 °F -45.3 °F -25.6 °F 64% 30.41 in 10.0 mi NW 23.0 mph 32.2 mph N/A   Clear
8:30 PM -16.6 °F -43.5 °F -25.6 °F 64% 30.40 in 10.0 mi NW 19.6 mph 27.6 mph N/A   Clear
8:45 PM -16.6 °F -46.4 °F -23.8 °F 70% 30.39 in 10.0 mi NW 25.3 mph 32.2 mph N/A   Partly Cloudy
9:10 PM -16.6 °F -46.4 °F -23.8 °F 70% 30.38 in 9.0 mi NW 25.3 mph 32.2 mph N/A   Partly Cloudy
9:30 PM -16.6 °F -45.9 °F -23.8 °F 70% 30.38 in 10.0 mi NW 24.2 mph 29.9 mph N/A   Partly Cloudy
9:45 PM -16.6 °F -45.3 °F -23.8 °F 70% 30.38 in 10.0 mi NW 23.0 mph 34.5 mph N/A   Clear
10:10 PM -16.6 °F -45.3 °F -23.8 °F 70% 30.38 in 10.0 mi NW 23.0 mph 27.6 mph N/A   Partly Cloudy
10:30 PM -16.6 °F -46.4 °F -25.6 °F 64% 30.37 in 10.0 mi NW 25.3 mph 32.2 mph N/A   Partly Cloudy
10:45 PM -16.6 °F -47.4 °F -25.6 °F 64% 30.36 in 10.0 mi NW 27.6 mph 34.5 mph N/A   Clear
11:10 PM -16.6 °F -45.3 °F -25.6 °F 64% 30.36 in 10.0 mi NW 23.0 mph 29.9 mph N/A   Partly Cloudy
11:25 PM -16.6 °F -45.3 °F -25.6 °F 64% 30.36 in 10.0 mi NW 23.0 mph 31.1 mph N/A   Clear
11:50 PM -16.6 °F -44.8 °F -23.8 °F 70% 30.35 in 10.0 mi NW 21.9 mph 27.6 mph N/A   Scattered Clouds